[[{"header":{"parameterUnit":"m.s-1","parameterCategory":1,"la1":30.2991,"la2":30.254,"lo1":-89.0895,"lo2":-89.0444,"dy":0.0017,"dx":0.0017,"nx":28,"ny":28,"refTime":"2024-07-17T09:00:00:Z","depth":0,"parameterNumber":2,"parameterNumberName":"U-component_of_WINDS"},"data":[0,0,0,0,0,0,0,0,0,0,0,0,0,0,0,0,0,0,0,0,0,0,0,0,0,0,0,0,0,0,0,0,0,0,0,0,0,0,0,0,0,0,0,0,0,0,0,0,0,0,0,0,0,0,0,0,0,0,2.4568,2.4569,0,2.467,2.4671,2.4672,2.4687,2.4686,2.4685,2.4685,2.4785,2.4789,2.4792,0,0,0,0,0,0,0,0,0,0,0,0,0,2.4379,2.4383,2.4568,2.4569,2.457,2.467,2.4671,2.4672,2.4687,2.4686,2.4685,2.4684,2.4784,2.4788,2.4793,0,0,0,0,0,0,0,0,0,0,0,0,0,2.4469,2.4384,2.4567,2.459,2.4593,2.4669,2.4671,2.4673,2.4688,2.4686,2.4685,2.4684,2.4783,2.4788,2.4793,2.4853,0,0,2.4809,2.4812,0,0,0,0,0,0,0,0,2.4464,2.4476,2.4585,2.4588,2.4592,2.4664,2.4642,2.4733,2.4688,2.4652,2.4685,2.4683,2.4746,2.4754,2.4776,2.4858,2.4862,2.481,2.4813,2.4815,2.4817,0,0,0,0,0,0,0,2.4458,2.4472,2.4608,2.4587,2.4591,2.4593,2.4604,2.4659,2.4705,2.4655,2.4656,2.4668,2.4748,2.4771,2.4779,2.4864,2.481,2.4814,2.4818,2.482,2.4995,2.4996,0,0,0,0,0,0,2.4448,2.4466,2.4605,2.4611,2.4523,2.4597,2.461,2.4642,2.4705,2.4713,2.4669,2.4668,2.4763,2.4773,2.4782,2.4854,2.4815,2.482,2.4823,2.4993,2.4995,2.4997,0,0,0,0,0,0,2.4444,2.446,2.4601,2.4539,2.4557,2.4602,2.4638,2.4645,2.4669,2.4716,2.4723,2.4685,2.4762,2.4775,2.4835,2.4858,2.4823,2.4828,2.4992,2.4994,2.4996,2.4999,0,0,0,0,0,0,2.4439,2.4459,2.4484,2.454,2.456,2.4653,2.464,2.4648,2.4678,2.4678,2.4733,2.474,2.4762,2.4827,2.484,2.4864,2.4832,2.499,2.4993,2.4995,2.4997,2.5001,2.5004,0,0,0,0,0,2.4432,2.4481,2.4485,2.4502,2.4593,2.4655,2.4666,2.4691,2.468,2.4704,2.4734,2.4739,2.4853,2.4833,2.4848,2.4874,2.4989,2.4992,2.4995,2.4995,2.5,2.5004,0,0,0,0,0,0,2.4427,2.4489,2.4494,2.4563,2.4603,2.4657,2.4689,2.4696,2.474,2.4738,2.4766,2.4778,2.4835,2.4861,2.4837,2.4933,2.492,2.4926,2.4914,2.4919,2.4923,2.4915,2.4836,0,0,0,0,0,2.4433,2.448,2.4531,2.4587,2.4607,2.4644,2.4672,2.4688,2.473,2.4747,2.4781,2.482,2.4865,2.4894,2.4938,2.5001,2.5011,2.5026,2.5029,2.5032,2.5037,2.5068,2.5074,2.5008,2.5008,2.5008,0,0,2.4448,2.4488,2.4516,2.4587,2.462,2.4665,2.4659,2.4708,2.474,2.4754,2.4812,2.4838,2.4884,2.4944,2.4973,2.4967,2.5057,2.5036,2.5038,2.5042,2.5072,2.5078,2.5084,2.501,2.501,2.5009,0,0,2.4498,2.4534,2.4582,2.4615,2.4665,2.4689,2.47,2.4752,2.477,2.4829,2.4839,2.4877,2.4954,2.4985,2.5011,2.5068,2.5073,2.5081,2.51,2.513,2.5136,2.514,2.5158,2.5164,2.5086,2.5086,2.5086,0,2.4509,2.458,2.4606,2.4654,2.4683,2.4697,2.4745,2.4775,2.4836,2.4855,2.4848,2.4942,2.4975,2.5041,2.5054,2.5076,2.5087,2.5075,2.5133,2.5138,2.5143,2.516,2.5166,2.5087,2.5087,2.5087,2.5087,0,2.4589,2.4638,2.4671,2.4729,2.4762,2.481,2.4841,2.487,2.4882,2.4905,2.4963,2.5001,2.5051,2.5068,2.5081,2.5135,2.513,2.5128,2.5115,2.5149,2.5165,2.5172,2.5088,2.5087,2.5087,2.5087,0,0,2.464,2.4711,2.4722,2.4747,2.4802,2.4838,2.4884,2.4934,2.4957,2.4998,2.5035,2.5099,2.5096,2.5125,2.514,2.5167,2.5205,2.5161,2.5162,2.5166,2.5264,2.5264,2.5271,2.5209,2.521,2.5211,2.5259,0,2.4694,2.4779,2.4802,2.4872,2.4915,2.4927,2.4967,2.5003,2.5025,2.5063,2.5087,2.513,2.5125,2.5142,2.5169,2.5195,2.5225,2.5192,2.5241,2.5243,2.5228,2.528,2.5281,2.5325,2.5266,2.5267,2.5268,0,2.4769,2.4811,2.4886,2.4931,2.495,2.4985,2.503,2.5067,2.5106,2.5121,2.5151,2.5163,2.5209,2.5193,2.5254,2.5231,2.5252,2.5268,2.527,2.5275,2.5257,2.5284,2.534,2.5345,2.5278,2.5278,2.5277,0,2.4795,2.487,2.4923,2.4945,2.5,2.5024,2.5048,2.5086,2.5113,2.5152,2.5169,2.5212,2.5235,2.5267,2.5289,2.5276,2.5347,2.5334,2.5358,2.5357,2.5372,2.537,2.5429,2.5388,2.5388,2.5388,2.5388,0,2.4852,2.4896,2.4935,2.4968,2.5017,2.5042,2.5088,2.5112,2.5146,2.5181,2.5194,2.5227,2.5255,2.529,2.5307,2.5353,2.5364,2.5375,2.5379,2.5373,2.5371,2.5387,2.5383,2.5389,2.5389,2.5389,2.5388,0,2.4889,2.4918,2.4976,2.5023,2.5035,2.5069,2.5108,2.5138,2.516,2.5204,2.5216,2.5249,2.5291,2.5317,2.537,2.5381,2.5431,2.5435,2.5418,2.542,2.5441,2.5437,2.551,2.552,2.5474,2.5474,2.5474,0,2.4923,2.4958,2.5007,2.5032,2.5056,2.5097,2.5124,2.5148,2.5175,2.5221,2.5245,2.5288,2.5323,2.5389,2.5417,2.5457,2.546,2.5483,2.5466,2.5458,2.5458,2.5455,2.5457,2.5485,2.5486,2.5486,2.5486,0,2.4979,2.4991,2.503,2.5073,2.5105,2.514,2.5175,2.5194,2.5224,2.5253,2.5296,2.5324,2.5377,2.5418,2.546,2.5482,2.5488,2.5491,2.5498,2.5492,2.548,2.5484,2.5424,2.5489,2.5489,2.5489,2.5489,2.5489,2.5015,2.5044,2.5083,2.5125,2.5153,2.5185,2.5215,2.5239,2.5276,2.5322,2.5334,2.5378,2.5413,2.5469,2.5492,2.5525,2.5522,2.5533,2.5535,2.5537,2.5536,2.5476,2.5533,2.5533,2.5533,2.5533,2.5533,0,2.5069,2.5094,2.5132,2.518,2.5212,2.5216,2.5254,2.528,2.5319,2.5351,2.5386,2.5433,2.5472,2.5502,2.5542,2.5562,2.5566,2.5572,2.557,2.5574,2.5538,2.5527,2.5568,2.5568,2.5568,2.5568,2.5568,2.5568,2.5101,2.515,2.5166,2.5228,2.5252,2.5296,2.5317,2.5344,2.537,2.5423,2.5455,2.5475,2.5505,2.5547,2.5581,2.5589,2.5602,2.5607,2.5614,2.5581,2.5577,2.5573,2.5563,2.561,2.561,2.5647,2.5647,2.5647]},{"header":{"parameterUnit":"m.s-1","parameterCategory":1,"la1":30.2991,"la2":30.254,"lo1":-89.0895,"lo2":-89.0444,"dy":0.0017,"dx":0.0017,"nx":28,"ny":28,"refTime":"2024-07-17T09:00:00:Z","depth":0,"parameterNumber":3,"parameterNumberName":"V-component_of_WINDS"},"data":[0,0,0,0,0,0,0,0,0,0,0,0,0,0,0,0,0,0,0,0,0,0,0,0,0,0,0,0,0,0,0,0,0,0,0,0,0,0,0,0,0,0,0,0,0,0,0,0,0,0,0,0,0,0,0,0,0,0,4.0273,4.0275,0,4.0449,4.0451,4.0453,4.0464,4.0462,4.046,4.0458,4.0637,4.0643,4.065,0,0,0,0,0,0,0,0,0,0,0,0,0,3.9942,3.9948,4.0273,4.0275,4.0277,4.0449,4.0451,4.0454,4.0465,4.0462,4.046,4.0457,4.0635,4.0642,4.065,0,0,0,0,0,0,0,0,0,0,0,0,0,4.0099,3.995,4.0272,4.0303,4.0308,4.0448,4.0451,4.0454,4.0465,4.0462,4.0459,4.0456,4.0632,4.0642,4.0651,4.0772,0,0,4.0682,4.0686,0,0,0,0,0,0,0,0,4.009,4.0111,4.0297,4.0302,4.0307,4.0432,4.04,4.0561,4.0466,4.0405,4.0458,4.0455,4.0571,4.0586,4.0625,4.0781,4.0788,4.0683,4.0689,4.0693,4.0696,0,0,0,0,0,0,0,4.0079,4.0103,4.0343,4.0299,4.0306,4.0307,4.0326,4.0431,4.0503,4.041,4.0412,4.0432,4.0573,4.0616,4.0629,4.0791,4.0682,4.0691,4.0697,4.0701,4.1052,4.1055,0,0,0,0,0,0,4.0063,4.0094,4.0337,4.0348,4.0189,4.0316,4.0337,4.0395,4.0502,4.0515,4.0435,4.0432,4.06,4.0618,4.0636,4.0783,4.0693,4.0702,4.0708,4.1048,4.1052,4.1056,0,0,0,0,0,0,4.0056,4.0084,4.033,4.0222,4.0253,4.0325,4.0389,4.04,4.0442,4.052,4.0533,4.0465,4.0598,4.0622,4.0738,4.0789,4.0706,4.0715,4.1044,4.105,4.1054,4.1078,0,0,0,0,0,0,4.0046,4.0082,4.0129,4.0223,4.0259,4.043,4.0393,4.0405,4.046,4.0458,4.0552,4.0565,4.0598,4.0723,4.0748,4.0801,4.0723,4.104,4.1047,4.1053,4.1073,4.1083,4.1092,0,0,0,0,0,4.0034,4.0129,4.0132,4.0161,4.032,4.0433,4.0454,4.0491,4.0464,4.0511,4.0561,4.0562,4.0779,4.0735,4.0763,4.082,4.1037,4.1045,4.1052,4.1069,4.1081,4.1092,0,0,0,0,0,0,4.004,4.0142,4.0146,4.0274,4.0345,4.0435,4.0496,4.0503,4.0583,4.0578,4.0619,4.0641,4.0755,4.0799,4.0748,4.0941,4.0905,4.0918,4.0908,4.0921,4.093,4.0917,4.0731,0,0,0,0,0,4.0056,4.0141,4.0225,4.033,4.0365,4.0424,4.0475,4.0497,4.0572,4.0602,4.066,4.0732,4.0816,4.0871,4.0953,4.1079,4.1099,4.1132,4.1142,4.1149,4.116,4.1228,4.1243,4.1081,4.1081,4.1081,0,0,4.0091,4.0157,4.0208,4.0332,4.039,4.0475,4.045,4.0541,4.0604,4.0616,4.0729,4.0774,4.0856,4.0977,4.1034,4.1018,4.1209,4.1159,4.1164,4.1172,4.1238,4.1253,4.1266,4.1086,4.1085,4.1084,0,0,4.0196,4.0256,4.0349,4.0406,4.0493,4.0532,4.0554,4.0643,4.0673,4.0787,4.0797,4.0872,4.1017,4.1075,4.1123,4.1249,4.1251,4.1274,4.1324,4.1389,4.1402,4.1414,4.1457,4.1472,4.1285,4.1285,4.1285,0,4.0228,4.0357,4.0395,4.0486,4.054,4.0554,4.0648,4.0702,4.0811,4.0847,4.0828,4.1009,4.1065,4.1199,4.1229,4.1269,4.1294,4.1263,4.1397,4.1409,4.1421,4.1462,4.1478,4.1287,4.1287,4.1287,4.1286,0,4.0391,4.048,4.0544,4.0649,4.0711,4.0802,4.0853,4.091,4.0926,4.0966,4.108,4.1149,4.1244,4.1277,4.1295,4.1413,4.14,4.1389,4.1353,4.1438,4.1477,4.1493,4.129,4.1289,4.1289,4.1288,0,0,4.0506,4.063,4.0652,4.0699,4.0795,4.0865,4.0956,4.1049,4.1097,4.1171,4.1247,4.1369,4.1358,4.1413,4.1436,4.1494,4.1587,4.1475,4.1478,4.1492,4.1719,4.1727,4.1745,4.1589,4.1592,4.1595,4.1712,0,4.0621,4.0785,4.0821,4.0961,4.1043,4.1057,4.1136,4.1203,4.1242,4.1316,4.1359,4.1444,4.1425,4.1457,4.1515,4.1563,4.1632,4.1555,4.1659,4.1663,4.1637,4.1766,4.1774,4.1881,4.1728,4.173,4.1732,0,4.0778,4.0856,4.1004,4.1088,4.1123,4.1194,4.1281,4.1353,4.1428,4.1452,4.1512,4.1529,4.1623,4.1583,4.1712,4.1658,4.1703,4.1733,4.1738,4.1748,4.1702,4.1778,4.1917,4.1932,4.1757,4.1755,4.1754,0,4.0845,4.0987,4.1094,4.1133,4.1234,4.1283,4.1327,4.1399,4.1452,4.1528,4.1562,4.1648,4.1695,4.176,4.1799,4.1767,4.1924,4.1888,4.1946,4.1945,4.1978,4.1975,4.2124,4.2008,4.2008,4.2008,4.2007,0,4.097,4.106,4.1125,4.119,4.1291,4.133,4.1428,4.1472,4.1535,4.1608,4.1626,4.1694,4.1741,4.1816,4.1847,4.1947,4.1969,4.199,4.1997,4.1988,4.1985,4.2017,4.201,4.2012,4.2011,4.201,4.201,0,4.1061,4.1109,4.1226,4.1311,4.1334,4.1404,4.1476,4.154,4.1579,4.1671,4.1695,4.1756,4.1844,4.1889,4.2,4.202,4.2133,4.2136,4.2108,4.211,4.2165,4.2159,4.2339,4.2364,4.2233,4.2234,4.2235,0,4.1137,4.1207,4.1299,4.1349,4.1394,4.1475,4.1529,4.157,4.1625,4.1715,4.1767,4.1856,4.1929,4.2069,4.2122,4.2206,4.221,4.2268,4.2223,4.2211,4.221,4.2205,4.2211,4.2275,4.2277,4.2278,4.2279,0,4.1266,4.1286,4.1363,4.1449,4.1513,4.1582,4.165,4.169,4.1741,4.1802,4.1892,4.1949,4.2061,4.2148,4.2236,4.228,4.2287,4.2292,4.231,4.2301,4.2281,4.2291,4.2128,4.2288,4.2287,4.2286,4.2286,4.2285,4.1352,4.1413,4.1487,4.1572,4.1627,4.169,4.1753,4.18,4.1876,4.197,4.1989,4.2084,4.2156,4.2274,4.232,4.2394,4.2382,4.2408,4.2414,4.242,4.2422,4.227,4.2411,4.241,4.241,4.241,4.241,0,4.148,4.1528,4.1606,4.17,4.1767,4.1768,4.1843,4.1898,4.1982,4.2048,4.212,4.2222,4.2307,4.2366,4.2452,4.25,4.2505,4.2521,4.2517,4.2527,4.2428,4.2404,4.2515,4.2515,4.2514,4.2514,4.2514,4.2514,4.1555,4.1658,4.1686,4.1816,4.1864,4.1957,4.1999,4.2057,4.2109,4.2223,4.2294,4.2332,4.2395,4.2485,4.2562,4.2577,4.2607,4.2623,4.2638,4.2545,4.2534,4.2523,4.25,4.2629,4.2629,4.273,4.2731,4.2731]}]]